KH6HHG Weather Reports


Display with metric or nautical units.
time (UTC)temp
F
wind
direction
speed
MPH
gust
MPH
rain 1hr
in
rain 24hr
in
rain mn
in
humidity
%
barometer
mb
20180625172236 70 74 2.0 10.0 0.00 0.07 0.01 78 1013.9
20180625171738 70 70 1.0 8.0 0.00 0.07 0.01 78 1013.9
20180625171237 70 78 5.0 8.0 0.00 0.07 0.01 77 1014.0
20180625170737 69 73 6.0 14.0 0.00 0.07 0.01 77 1013.9
20180625170237 69 74 7.0 12.0 0.00 0.07 0.01 78 1013.7
20180625165737 68 71 2.0 18.0 0.00 0.07 0.01 79 1013.6
20180625165236 68 81 2.0 3.0 0.00 0.07 0.01 79 1013.7
20180625164736 68 59 5.0 13.0 0.00 0.07 0.01 77 1013.6
20180625164236 68 95 3.0 8.0 0.00 0.07 0.01 77 1013.6
20180625163738 68 80 8.0 10.0 0.00 0.07 0.01 78 1013.6
20180625163237 68 73 3.0 10.0 0.00 0.07 0.01 77 1013.5
20180625162737 67 68 2.0 10.0 0.00 0.07 0.01 78 1013.4
20180625162237 67 78 1.0 10.0 0.00 0.07 0.01 77 1013.4
20180625161737 67 100 0.0 0.0 0.00 0.07 0.01 77 1013.4
20180625161238 67 99 0.0 0.0 0.00 0.07 0.01 76 1013.4
20180625160737 68 98 0.0 0.0 0.00 0.07 0.01 76 1013.4
20180625160237 68 93 0.0 0.0 0.00 0.07 0.01 76 1013.4
20180625155737 68 80 1.0 0.0 0.00 0.07 0.01 76 1013.3
20180625155237 68 92 0.0 0.0 0.00 0.07 0.01 76 1013.2
20180625154736 68 82 2.0 12.0 0.00 0.07 0.01 76 1013.2
20180625154236 68 107 0.0 0.0 0.00 0.07 0.01 77 1013.2
20180625153738 67 89 1.0 12.0 0.00 0.07 0.01 77 1013.1
20180625153238 68 93 2.0 12.0 0.00 0.07 0.01 78 1013.1
20180625152738 68 74 3.0 9.0 0.00 0.07 0.01 78 1013.2
20180625152237 68 82 0.0 0.0 0.00 0.07 0.01 77 1013.2
20180625151737 68 91 0.0 0.0 0.00 0.07 0.01 77 1013.2
20180625151237 68 96 1.0 9.0 0.00 0.07 0.01 77 1013.1
20180625150736 68 87 1.0 12.0 0.00 0.07 0.01 78 1013.1
20180625150236 68 92 1.0 8.0 0.00 0.07 0.01 78 1013.0
20180625145738 68 82 0.0 0.0 0.00 0.07 0.01 79 1013.0
20180625145237 67 96 1.0 12.0 0.00 0.07 0.01 78 1012.9
20180625144737 67 86 1.0 12.0 0.00 0.07 0.01 79 1012.9
20180625144237 67 86 1.0 12.0 0.00 0.07 0.01 78 1012.9
20180625143737 67 94 1.0 1.0 0.00 0.07 0.01 78 1012.9
20180625143237 67 99 1.0 12.0 0.00 0.07 0.01 79 1012.9
20180625142737 67 100 0.0 0.0 0.00 0.07 0.01 79 1012.9
20180625142236 67 104 1.0 1.0 0.00 0.07 0.01 79 1012.9
20180625141739 67 96 1.0 10.0 0.00 0.07 0.01 79 1013.0
20180625141238 67 90 2.0 12.0 0.00 0.07 0.01 80 1012.9
20180625140737 67 92 2.0 12.0 0.00 0.07 0.01 81 1012.9
20180625140236 67 96 2.0 7.0 0.00 0.07 0.01 81 1012.9
20180625135737 67 101 0.0 7.0 0.00 0.07 0.01 81 1012.8
20180625135237 67 95 1.0 12.0 0.00 0.07 0.01 82 1012.9
20180625134736 67 100 0.0 0.0 0.00 0.07 0.01 82 1012.9
20180625134238 67 90 1.0 9.0 0.00 0.07 0.01 83 1012.9
20180625133738 67 96 2.0 13.0 0.00 0.07 0.01 83 1012.8
20180625133238 67 109 8.0 16.0 0.00 0.07 0.01 84 1012.9
20180625132737 67 101 3.0 14.0 0.00 0.07 0.01 85 1013.0
20180625132237 67 99 0.0 0.0 0.00 0.07 0.01 85 1012.9
20180625131737 67 93 2.0 12.0 0.00 0.07 0.01 86 1013.0
20180625131237 67 107 1.0 8.0 0.00 0.07 0.01 86 1013.0
20180625130738 67 90 6.0 17.0 0.00 0.07 0.01 86 1013.0
20180625130237 67 88 1.0 0.0 0.00 0.07 0.01 85 1012.8
20180625125738 67 109 0.0 0.0 0.00 0.07 0.01 86 1012.8
20180625125238 67 75 0.0 0.0 0.00 0.07 0.01 86 1012.8
20180625124738 67 69 2.0 13.0 0.00 0.07 0.01 86 1012.8
20180625124238 67 83 5.0 3.0 0.00 0.07 0.01 86 1012.8
20180625123737 67 96 2.0 13.0 0.00 0.07 0.01 86 1012.8
20180625123237 67 102 7.0 15.0 0.00 0.07 0.01 87 1012.9
20180625122737 67 82 1.0 3.0 0.00 0.07 0.01 87 1012.9
20180625122237 67 74 2.0 14.0 0.00 0.07 0.01 86 1012.9
20180625121737 67 81 0.0 0.0 0.00 0.07 0.01 86 1013.1
20180625121236 67 85 2.0 12.0 0.00 0.07 0.01 86 1013.2
20180625120738 67 98 0.0 0.0 0.00 0.07 0.01 86 1013.3
20180625120238 67 87 2.0 0.0 0.00 0.07 0.01 86 1013.3
20180625115737 67 76 1.0 12.0 0.00 0.07 0.01 86 1013.3
20180625115237 67 72 1.0 0.0 0.00 0.07 0.01 85 1013.3
20180625114737 68 74 0.0 0.0 0.00 0.07 0.01 84 1013.4
20180625114237 68 76 1.0 0.0 0.01 0.07 0.01 83 1013.4
20180625113738 68 97 1.0 8.0 0.01 0.07 0.01 83 1013.4
20180625113238 68 80 2.0 10.0 0.01 0.07 0.01 84 1013.5
20180625112738 67 90 2.0 13.0 0.01 0.07 0.01 84 1013.4
20180625112238 67 91 2.0 8.0 0.01 0.07 0.01 84 1013.6
20180625111738 67 89 0.0 0.0 0.01 0.07 0.01 84 1013.7
20180625111237 67 87 2.0 12.0 0.01 0.07 0.01 84 1013.8
20180625110737 67 89 1.0 2.0 0.01 0.07 0.01 84 1013.9
20180625110237 67 97 6.0 13.0 0.01 0.07 0.01 84 1013.8
20180625105737 67 91 2.0 10.0 0.00 0.07 0.01 84 1013.9
20180625105238 67 95 3.0 12.0 0.00 0.07 0.01 84 1013.8
20180625104738 67 88 2.0 10.0 0.00 0.07 0.01 84 1013.8
20180625104238 67 91 3.0 10.0 0.00 0.06 0.00 84 1014.0
20180625103738 67 87 1.0 0.0 0.00 0.06 0.00 84 1014.0
20180625103238 67 85 2.0 13.0 0.00 0.06 0.00 85 1014.0
20180625102737 67 91 1.0 3.0 0.00 0.06 0.00 85 1013.9
20180625102237 67 84 5.0 16.0 0.00 0.06 0.00 85 1014.0
20180625101737 66 97 7.0 17.0 0.00 0.06 0.00 86 1014.2
20180625101238 67 74 6.0 15.0 0.00 0.06 0.00 87 1014.2
20180625100737 67 82 0.0 3.0 0.00 0.06 0.00 88 1014.3
20180625100237 67 95 0.0 1.0 0.00 0.06 0.00 89 1014.4
20180625095737 67 90 2.0 2.0 0.01 0.06 0.06 89 1014.5
20180625095238 67 90 5.0 5.0 0.01 0.06 0.06 90 1014.5
20180625094738 67 87 0.0 10.0 0.01 0.06 0.06 91 1014.6
20180625094238 67 93 0.0 9.0 0.01 0.06 0.06 91 1014.6
20180625093738 67 88 1.0 12.0 0.01 0.06 0.06 91 1014.7
20180625093238 67 81 0.0 0.0 0.01 0.06 0.06 91 1014.8
20180625092738 67 73 0.0 15.0 0.01 0.07 0.06 91 1014.8
20180625092237 67 77 0.0 0.0 0.00 0.06 0.05 90 1014.7
20180625091737 67 77 0.0 1.0 0.00 0.06 0.05 90 1014.7
20180625091237 67 91 2.0 7.0 0.01 0.06 0.05 90 1014.7
20180625090738 67 87 0.0 3.0 0.01 0.06 0.05 90 1014.6
20180625090239 67 86 0.0 8.0 0.01 0.06 0.05 90 1014.6
20180625085739 67 70 7.0 9.0 0.01 0.06 0.05 90 1014.7
20180625085238 67 70 2.0 12.0 0.01 0.06 0.05 90 1014.7
20180625084739 67 61 0.0 6.0 0.01 0.06 0.05 89 1014.7
20180625084238 67 68 2.0 9.0 0.01 0.06 0.05 88 1014.6
20180625083738 67 65 5.0 9.0 0.01 0.06 0.05 88 1014.6
20180625083238 67 78 1.0 12.0 0.01 0.07 0.05 88 1014.6
20180625082738 67 81 1.0 7.0 0.01 0.07 0.05 89 1014.7
20180625082237 67 80 2.0 20.0 0.01 0.07 0.05 89 1014.8
20180625081737 67 90 2.0 9.0 0.02 0.07 0.05 89 1014.9
20180625081239 67 71 7.0 12.0 0.01 0.06 0.04 89 1014.8
20180625080737 67 71 3.0 10.0 0.02 0.06 0.04 89 1014.9
20180625080237 67 75 2.0 12.0 0.02 0.06 0.04 90 1014.8
20180625075738 68 65 1.0 10.0 0.02 0.06 0.04 91 1014.8
20180625075238 68 70 1.0 0.0 0.02 0.06 0.04 91 1014.9
20180625074738 68 77 1.0 2.0 0.02 0.06 0.04 91 1014.9
20180625074238 67 71 2.0 10.0 0.02 0.06 0.04 90 1014.9
20180625073737 68 96 1.0 10.0 0.02 0.06 0.04 90 1014.8
20180625073237 68 77 0.0 3.0 0.02 0.06 0.04 91 1014.8
20180625072739 68 78 1.0 7.0 0.02 0.06 0.04 91 1014.8
20180625072237 68 76 2.0 0.0 0.02 0.06 0.04 91 1014.8
20180625071739 68 68 1.0 14.0 0.01 0.05 0.03 90 1014.7
20180625071238 68 70 5.0 9.0 0.01 0.05 0.03 90 1014.7
20180625070737 68 63 0.0 1.0 0.00 0.04 0.02 90 1014.7
20180625070237 68 63 0.0 0.0 0.00 0.04 0.02 89 1014.5
20180625065737 68 66 3.0 9.0 0.00 0.04 0.02 89 1014.5
20180625065239 68 80 2.0 12.0 0.00 0.04 0.02 88 1014.5
20180625064738 68 82 3.0 12.0 0.00 0.04 0.02 89 1014.5
20180625064238 68 83 5.0 5.0 0.00 0.04 0.02 88 1014.4
20180625063737 69 86 1.0 12.0 0.00 0.04 0.02 88 1014.4
20180625063239 69 77 1.0 9.0 0.00 0.04 0.02 88 1014.3
20180625062738 69 67 5.0 16.0 0.00 0.04 0.02 88 1014.2
20180625062237 69 85 1.0 7.0 0.00 0.04 0.02 88 1014.2
20180625061738 69 74 1.0 5.0 0.00 0.04 0.02 88 1014.2
20180625061239 69 91 2.0 0.0 0.00 0.04 0.02 88 1014.2
20180625060738 69 78 0.0 1.0 0.00 0.04 0.02 89 1014.1
20180625060238 69 85 5.0 16.0 0.00 0.04 0.02 89 1014.1
20180625055738 69 96 3.0 9.0 0.00 0.04 0.02 89 1014.1
20180625055237 69 92 1.0 7.0 0.00 0.04 0.02 89 1014.0
20180625054737 69 102 0.0 8.0 0.00 0.04 0.02 89 1014.1
20180625054239 69 83 3.0 14.0 0.00 0.04 0.02 88 1014.0
20180625053738 69 68 2.0 10.0 0.00 0.04 0.02 87 1014.0
20180625053239 69 73 0.0 1.0 0.00 0.04 0.02 86 1013.9
20180625052739 70 68 1.0 3.0 0.00 0.04 0.02 84 1013.9
20180625052238 70 70 1.0 5.0 0.00 0.04 0.02 83 1013.7
20180625051738 70 102 5.0 12.0 0.00 0.04 0.02 83 1013.6
20180625051238 70 89 2.0 9.0 0.00 0.04 0.02 83 1013.7
20180625050737 70 79 1.0 10.0 0.00 0.04 0.02 83 1013.7
20180625050239 70 78 1.0 0.0 0.00 0.04 0.02 82 1013.7
20180625045737 70 81 5.0 13.0 0.00 0.04 0.02 82 1013.7
20180625045239 70 101 0.0 0.0 0.00 0.04 0.02 82 1013.7
20180625044739 70 114 0.0 0.0 0.00 0.04 0.02 82 1013.7
20180625044239 71 96 1.0 1.0 0.00 0.04 0.02 82 1013.7
20180625043738 71 94 3.0 12.0 0.00 0.04 0.02 81 1013.6
20180625043238 72 79 2.0 8.0 0.00 0.04 0.02 81 1013.6
20180625042738 72 87 0.0 0.0 0.00 0.04 0.02 80 1013.6
20180625042237 73 76 0.0 0.0 0.00 0.04 0.02 79 1013.6
20180625041737 73 105 0.0 0.0 0.00 0.04 0.02 77 1013.5
20180625041239 73 82 1.0 8.0 0.00 0.04 0.02 76 1013.4
20180625040738 73 96 0.0 0.0 0.00 0.04 0.02 76 1013.3
20180625040238 73 84 3.0 12.0 0.00 0.04 0.02 76 1013.2
20180625035737 73 96 1.0 9.0 0.00 0.04 0.02 77 1013.2
20180625035239 73 86 1.0 8.0 0.00 0.04 0.02 77 1013.2
20180625034739 73 87 1.0 12.0 0.00 0.04 0.02 77 1013.2
20180625034239 73 103 1.0 10.0 0.00 0.04 0.02 78 1013.1
20180625033738 73 108 7.0 13.0 0.00 0.04 0.02 79 1013.1
20180625033238 73 94 3.0 14.0 0.00 0.04 0.02 80 1013.0
20180625032738 73 79 3.0 10.0 0.00 0.04 0.02 80 1013.0
20180625032239 73 106 3.0 15.0 0.00 0.04 0.02 80 1013.0
20180625031739 73 104 8.0 15.0 0.00 0.04 0.02 80 1012.8
20180625031239 73 107 2.0 13.0 0.00 0.04 0.02 81 1012.6
20180625030738 74 94 0.0 6.0 0.00 0.04 0.02 82 1012.5
20180625030238 74 87 8.0 12.0 0.00 0.04 0.02 80 1012.5
20180625025738 74 83 3.0 10.0 0.00 0.04 0.02 79 1012.4
20180625025238 75 83 9.0 17.0 0.00 0.04 0.02 80 1012.3
20180625024738 74 93 8.0 12.0 0.01 0.04 0.02 79 1012.3
20180625024238 74 83 12.0 17.0 0.01 0.04 0.02 80 1012.2
20180625023738 74 79 8.0 17.0 0.01 0.04 0.02 80 1012.2
20180625023238 74 82 9.0 16.0 0.01 0.04 0.02 80 1012.2
20180625022737 74 91 9.0 17.0 0.01 0.04 0.02 80 1012.3
20180625022239 74 75 2.0 8.0 0.01 0.04 0.02 82 1012.4
20180625021739 73 78 6.0 23.0 0.01 0.04 0.02 81 1012.5
20180625021239 73 89 5.0 15.0 0.01 0.04 0.02 83 1012.6
20180625020738 73 94 6.0 14.0 0.02 0.04 0.02 84 1012.6
20180625020239 72 85 9.0 7.0 0.02 0.04 0.02 85 1012.6
20180625015739 72 76 3.0 10.0 0.02 0.04 0.02 86 1012.6
20180625015238 73 85 7.0 14.0 0.02 0.04 0.02 84 1012.7
20180625014738 74 95 9.0 17.0 0.01 0.03 0.01 83 1012.8
20180625014238 75 78 7.0 20.0 0.01 0.03 0.01 83 1012.9
20180625013738 75 97 5.0 18.0 0.01 0.03 0.01 82 1012.9
20180625013238 75 77 5.0 10.0 0.01 0.03 0.01 83 1012.8
20180625012739 75 79 13.0 16.0 0.01 0.03 0.01 83 1012.8
20180625012238 75 78 5.0 13.0 0.01 0.03 0.01 81 1013.0
20180625011739 76 70 7.0 20.0 0.01 0.03 0.01 81 1013.0
20180625011239 77 72 8.0 15.0 0.01 0.03 0.01 80 1013.1
20180625010739 78 66 8.0 21.0 0.00 0.02 0.00 74 1013.1
20180625010238 78 84 10.0 14.0 0.00 0.02 0.00 74 1013.1
20180625005738 77 76 5.0 16.0 0.00 0.02 0.00 74 1013.1
20180625005239 78 88 5.0 14.0 0.00 0.02 0.00 76 1013.1
20180625004739 78 85 9.0 15.0 0.00 0.02 0.00 76 1013.1
20180625004238 78 88 6.0 16.0 0.00 0.02 0.00 75 1013.2
20180625003739 78 88 10.0 13.0 0.00 0.02 0.00 74 1013.2
20180625003238 78 88 8.0 12.0 0.00 0.02 0.00 75 1013.3
20180625002739 78 98 5.0 16.0 0.00 0.02 0.00 77 1013.3
20180625002239 77 102 2.0 13.0 0.00 0.02 0.00 78 1013.4
20180625001738 77 95 6.0 12.0 0.00 0.02 0.00 78 1013.4
20180625001239 77 80 3.0 12.0 0.00 0.02 0.00 78 1013.4
20180625000739 76 92 7.0 18.0 0.00 0.02 0.00 78 1013.3
20180625000238 75 73 1.0 14.0 0.00 0.02 0.00 81 1013.4
20180624235738 75 81 2.0 12.0 0.00 0.02 0.00 83 1013.4
20180624235238 74 88 3.0 10.0 0.00 0.02 0.00 86 1013.5
20180624234740 74 75 5.0 17.0 0.00 0.02 0.00 85 1013.6
20180624234239 74 77 7.0 15.0 0.00 0.02 0.00 85 1013.7
20180624233739 75 78 6.0 10.0 0.00 0.02 0.00 85 1013.9
20180624233239 75 75 7.0 12.0 0.00 0.02 0.00 84 1013.9
20180624232739 76 79 6.0 18.0 0.00 0.02 0.00 82 1013.9
20180624232238 77 72 2.0 9.0 0.00 0.02 0.00 81 1013.8
20180624231739 78 88 9.0 13.0 0.00 0.02 0.00 77 1013.8
20180624231239 78 76 6.0 20.0 0.00 0.02 0.00 74 1013.8
20180624230740 77 94 5.0 12.0 0.00 0.02 0.00 76 1013.9
20180624230240 77 94 5.0 3.0 0.00 0.02 0.00 77 1014.1
20180624225739 79 65 8.0 20.0 0.00 0.02 0.00 75 1014.1
20180624225238 80 69 0.0 1.0 0.00 0.02 0.00 73 1014.2
20180624224738 80 95 5.0 13.0 0.00 0.02 0.00 67 1014.2
20180624224238 79 104 6.0 9.0 0.00 0.02 0.00 67 1014.1
20180624223738 79 82 1.0 7.0 0.00 0.02 0.00 71 1014.2
20180624223240 78 67 6.0 13.0 0.00 0.02 0.00 72 1014.3
20180624222738 79 68 8.0 12.0 0.00 0.02 0.00 71 1014.4
20180624222238 80 74 12.0 14.0 0.00 0.02 0.00 69 1014.4
20180624221740 80 95 5.0 7.0 0.00 0.02 0.00 66 1014.4
20180624221239 80 93 1.0 7.0 0.00 0.02 0.00 71 1014.3
20180624220738 79 80 10.0 14.0 0.00 0.02 0.00 69 1014.3
20180624220238 79 70 5.0 18.0 0.00 0.02 0.00 70 1014.4
20180624215738 79 65 5.0 16.0 0.00 0.02 0.00 71 1014.5
20180624215239 79 73 2.0 10.0 0.00 0.02 0.00 72 1014.5
20180624214739 78 81 3.0 9.0 0.00 0.02 0.00 72 1014.5
20180624214239 78 53 12.0 18.0 0.00 0.02 0.00 72 1014.5
20180624213738 78 76 8.0 10.0 0.00 0.02 0.00 71 1014.4
20180624213240 78 76 5.0 15.0 0.00 0.02 0.00 72 1014.3
20180624212740 78 68 7.0 13.0 0.00 0.02 0.00 73 1014.4
20180624212239 77 71 8.0 15.0 0.00 0.02 0.00 73 1014.5
20180624211740 77 77 8.0 20.0 0.00 0.02 0.00 75 1014.6
20180624211238 77 90 7.0 14.0 0.00 0.02 0.00 75 1014.7
20180624210740 77 70 9.0 17.0 0.00 0.02 0.00 75 1014.8
20180624210240 77 70 8.0 17.0 0.00 0.02 0.00 77 1014.6
20180624205739 76 60 9.0 18.0 0.00 0.02 0.00 78 1014.6
20180624205238 75 78 6.0 18.0 0.00 0.02 0.00 80 1014.6
20180624204738 75 75 8.0 12.0 0.00 0.02 0.00 80 1014.7
20180624204238 75 66 3.0 13.0 0.00 0.02 0.00 83 1014.8
20180624203740 75 65 9.0 13.0 0.00 0.02 0.00 80 1014.9
20180624203240 74 75 2.0 12.0 0.00 0.02 0.00 84 1014.8
20180624202739 74 57 3.0 6.0 0.00 0.02 0.00 84 1014.8
20180624202239 75 81 6.0 9.0 0.00 0.02 0.00 82 1014.8
20180624201739 76 72 7.0 10.0 0.00 0.02 0.00 77 1014.9
20180624201238 78 72 2.0 14.0 0.00 0.02 0.00 72 1014.9
20180624200739 77 102 1.0 12.0 0.00 0.02 0.00 75 1014.9
20180624200239 77 78 5.0 18.0 0.00 0.02 0.00 74 1014.8
20180624195739 77 91 6.0 12.0 0.00 0.02 0.00 74 1014.8
20180624195239 77 69 6.0 20.0 0.00 0.02 0.00 72 1014.8
20180624194740 77 64 3.0 15.0 0.00 0.02 0.00 73 1014.7
20180624194239 77 79 0.0 1.0 0.00 0.02 0.00 73 1014.7
20180624193738 76 79 1.0 5.0 0.00 0.02 0.00 76 1014.9
20180624193240 76 71 3.0 8.0 0.00 0.02 0.00 76 1014.9
20180624192740 75 79 3.0 10.0 0.00 0.02 0.00 75 1014.7
20180624192239 75 79 2.0 8.0 0.00 0.02 0.00 76 1014.8
20180624191739 75 74 2.0 7.0 0.00 0.02 0.00 77 1014.8
20180624191239 75 74 3.0 15.0 0.00 0.02 0.00 78 1014.9
20180624190739 74 66 1.0 9.0 0.00 0.02 0.00 78 1014.9
20180624190239 74 66 1.0 10.0 0.00 0.02 0.00 79 1014.8
20180624185738 74 73 1.0 3.0 0.00 0.02 0.00 78 1014.9
20180624185240 74 69 0.0 2.0 0.00 0.02 0.00 79 1014.9
20180624184740 74 73 0.0 0.0 0.00 0.02 0.00 80 1014.9
20180624184240 73 69 1.0 6.0 0.00 0.02 0.00 78 1014.9
20180624183739 73 73 1.0 0.0 0.00 0.02 0.00 78 1014.9
20180624183239 74 98 0.0 9.0 0.00 0.02 0.00 77 1014.8
20180624182739 74 75 6.0 12.0 0.00 0.02 0.00 77 1014.7
20180624182239 74 64 3.0 9.0 0.00 0.02 0.00 76 1014.8
20180624181738 74 70 3.0 12.0 0.00 0.02 0.00 75 1014.8
20180624181240 73 69 3.0 9.0 0.00 0.02 0.00 76 1014.7
20180624180740 73 86 2.0 9.0 0.00 0.02 0.00 77 1014.8
20180624180239 72 72 5.0 12.0 0.00 0.02 0.00 78 1014.7
20180624175739 71 98 3.0 13.0 0.00 0.02 0.00 78 1014.6
20180624175239 71 86 7.0 5.0 0.00 0.02 0.00 78 1014.6
20180624174739 70 92 2.0 9.0 0.00 0.02 0.00 79 1014.5
20180624174238 70 90 3.0 10.0 0.00 0.02 0.00 80 1014.5
20180624173740 69 90 2.0 8.0 0.00 0.02 0.00 82 1014.5
20180624173240 69 89 0.0 7.0 0.00 0.02 0.00 83 1014.5
20180624172740 69 64 1.0 5.0 0.00 0.02 0.00 83 1014.4